Date,TemperatureHighF,TemperatureAvgF,TemperatureLowF,DewpointHighF,DewpointAvgF,DewpointLowF,HumidityHigh,HumidityAvg,HumidityLow,PressureMaxIn,PressureMinIn,WindSpeedMaxMPH,WindSpeedAvgMPH,GustSpeedMaxMPH,PrecipitationSumIn
2013-1-1,17.1,5.1,-17.1,14.2,-1.0,-22.2,88,75,58,30.17,29.92,8,2,8,0.00
2013-1-2,18.9,17.0,14.9,16.7,13.9,11.3,95,88,79,29.97,29.85,11,4,11,0.00
2013-1-3,21.0,15.9,9.3,19.0,9.7,2.3,94,77,52,30.14,29.96,9,4,10,0.00
2013-1-4,36.1,16.3,8.1,16.4,10.7,5.8,94,81,43,30.03,29.89,7,2,7,0.01
2013-1-5,31.5,16.3,5.0,18.3,10.4,2.1,93,79,50,30.00,29.75,9,2,9,0.01
2013-1-6,28.2,17.5,8.4,17.3,9.5,4.2,90,73,40,30.11,29.89,12,3,12,0.00
2013-1-7,44.2,29.6,15.4,24.9,21.4,11.5,90,72,43,29.90,29.75,13,4,13,0.00
2013-1-8,39.6,28.1,8.8,29.2,22.5,7.0,95,80,61,29.88,29.65,13,4,14,0.00
2013-1-9,37.4,26.0,19.8,27.1,20.0,16.4,91,79,48,30.24,29.77,11,3,11,0.01
2013-1-10,46.2,34.8,23.0,33.6,24.1,16.2,99,68,32,30.21,29.65,17,5,17,0.32
2013-1-11,40.1,37.2,33.8,39.8,36.9,33.6,99,99,99,29.66,29.26,11,4,11,0.06
2013-1-12,40.1,16.6,3.4,39.8,9.3,-1.8,99,73,52,29.98,29.26,14,1,14,0.00
2013-1-13,9.3,4.5,0.0,0.5,-1.5,-4.1,82,75,65,30.09,29.93,0,0,0,0.00
2013-1-14,17.4,7.1,-2.9,4.2,0.6,-6.6,87,75,44,30.29,30.11,0,0,0,0.00
2013-1-15,32.2,17.8,2.5,16.6,8.7,0.1,91,70,37,30.17,29.69,14,3,15,0.00
2013-1-16,35.6,25.2,9.7,31.1,15.3,-3.4,97,68,36,30.16,29.52,14,5,14,0.01
2013-1-17,20.3,11.2,2.7,5.9,0.1,-6.0,85,61,46,30.28,30.14,10,3,11,0.00
2013-1-18,44.6,26.5,11.7,29.4,20.6,5.9,98,80,52,30.19,29.62,11,2,11,0.05
2013-1-19,37.8,20.2,1.0,30.1,13.7,-7.1,99,77,52,30.09,29.58,26,8,27,1.85
2013-1-20,7.5,-0.5,-7.1,-4.9,-9.3,-15.1,80,66,43,30.29,30.08,14,5,15,0.00
2013-1-21,-2.7,-8.9,-14.1,-15.1,-20.5,-24.0,70,56,41,30.23,30.14,15,5,15,0.00
2013-1-22,5.0,-6.9,-21.6,-12.4,-18.6,-27.5,76,57,39,30.29,30.15,9,2,9,0.00
2013-1-23,17.1,3.0,-6.0,5.0,-8.8,-19.3,80,58,39,30.45,30.04,14,6,14,0.35
2013-1-24,5.7,3.8,0.3,-5.2,-8.9,-13.2,60,55,51,30.50,30.19,9,4,9,0.00
2013-1-25,18.9,9.3,0.5,9.6,-0.5,-6.0,73,64,47,30.20,29.83,14,4,14,0.00
2013-1-26,21.2,9.3,-8.9,10.3,-0.2,-13.2,82,66,44,30.25,30.03,11,3,11,0.00
2013-1-27,34.5,27.8,21.2,29.4,21.1,10.3,99,77,55,30.03,29.72,11,3,11,0.00
2013-1-28,36.3,31.4,25.5,33.2,30.5,25.3,99,97,88,29.82,29.55,10,2,10,0.06
2013-1-29,37.8,32.3,26.1,34.0,28.0,18.9,99,84,72,29.67,29.45,16,6,16,0.11
2013-1-30,26.1,16.3,10.2,19.3,8.7,1.2,84,71,61,29.66,29.56,17,8,17,0.01
2013-1-31,10.6,4.7,-9.9,1.9,-5.1,-19.8,67,63,49,30.14,29.64,17,11,17,0.04
2013-2-1,4.6,-5.5,-21.5,-4.7,-14.8,-27.4,81,64,35,30.19,29.97,8,3,9,0.00
2013-2-2,15.8,5.7,-6.9,3.3,-4.1,-11.0,83,65,40,30.08,29.89,7,3,7,0.00
2013-2-3,18.3,10.2,2.3,3.9,0.4,-2.7,84,65,43,29.96,29.87,10,4,10,0.00
2013-2-4,18.1,10.0,-2.4,9.8,-0.2,-10.1,89,64,37,29.98,29.63,14,4,14,0.00
2013-2-5,30.7,18.8,-0.9,22.0,11.2,-4.5,93,74,43,29.98,29.53,14,4,14,0.00
2013-2-6,23.4,14.6,-2.6,20.6,11.1,-6.1,90,85,80,30.00,29.86,9,3,10,0.00
2013-2-7,28.8,25.1,22.8,23.2,21.5,20.1,98,86,73,30.17,29.92,17,8,17,0.00
2013-2-8,32.7,22.9,4.8,20.1,12.1,1.5,89,65,42,30.29,30.15,11,3,11,0.00
2013-2-9,32.0,29.2,19.2,29.6,26.2,14.6,99,89,77,30.12,29.85,14,5,17,0.00
2013-2-10,33.6,29.7,26.2,33.4,29.0,24.5,99,97,89,29.86,29.21,17,6,17,0.00
2013-2-11,30.2,24.8,15.3,30.0,18.2,10.1,99,76,63,29.93,29.23,17,7,17,0.00
2013-2-12,39.9,24.2,7.3,22.0,16.3,4.9,93,74,43,29.93,29.68,13,3,13,0.17
2013-2-13,44.6,28.5,19.8,32.3,24.5,17.3,99,86,47,29.69,29.49,7,1,7,0.00
2013-2-14,35.2,25.4,8.8,31.0,14.0,-2.8,99,66,28,30.06,29.52,18,4,18,0.07
2013-2-15,21.0,11.4,-1.1,2.1,-1.2,-6.1,81,58,36,30.19,30.05,17,4,17,0.01
2013-2-16,25.7,11.3,-2.6,4.1,-0.7,-34.2,85,61,34,30.14,30.04,8,2,8,0.00
2013-2-17,32.5,22.1,3.0,17.6,11.2,-2.7,78,63,48,30.06,29.61,15,6,15,0.00
2013-2-18,34.7,25.4,15.1,29.2,18.5,8.1,84,75,64,29.64,29.42,21,6,21,0.00
2013-2-19,15.1,5.1,0.3,8.1,-7.7,-10.2,73,55,39,30.21,29.64,19,9,19,0.26
2013-2-20,20.5,7.1,-9.2,1.8,-4.3,-14.6,81,60,38,30.36,30.21,8,3,8,0.26
2013-2-21,24.8,14.8,-5.1,16.6,4.4,-8.8,88,65,40,30.39,30.06,16,6,16,0.00
2013-2-22,31.8,25.0,19.6,25.4,21.2,-30.1,96,86,69,30.06,29.76,12,6,12,0.01
2013-2-23,36.1,27.4,20.7,25.1,21.9,19.7,97,81,55,29.81,29.72,5,2,5,0.02
2013-2-24,48.2,25.0,6.1,22.0,15.3,3.9,93,70,31,30.01,29.81,9,1,9,0.02
2013-2-25,44.4,32.6,10.8,22.3,19.0,8.5,93,61,35,30.02,29.96,6,2,6,0.00
2013-2-26,39.4,39.4,39.4,20.3,20.3,20.3,46,46,46,29.97,29.97,4,4,4,0.00
2013-3-2,51.8,23.5,5.2,51.0,9.9,2.5,99,59,29,29.92,29.15,7,2,7,4.80
2013-3-3,37.9,23.7,7.3,9.6,-0.9,-17.6,87,42,10,29.73,29.58,13,3,13,0.00
2013-3-4,30.7,25.2,21.2,23.1,15.3,0.1,95,68,36,29.63,29.54,14,4,14,0.00
2013-3-5,30.9,24.9,18.9,26.9,22.5,15.4,98,91,74,29.87,29.57,16,5,16,0.00
2013-3-6,34.0,19.0,2.7,18.7,12.2,-0.9,94,76,46,29.99,29.86,11,3,11,0.00
2013-3-7,39.6,18.7,-2.2,16.2,8.3,-5.5,88,67,34,29.96,29.85,10,2,10,0.06
2013-3-8,44.2,28.6,11.8,27.8,20.8,9.3,95,75,45,29.89,29.66,11,2,11,0.00
2013-3-9,37.9,35.4,32.5,37.2,34.3,27.4,99,96,77,29.67,29.27,10,3,11,0.44
2013-3-10,35.1,33.4,30.2,34.1,29.1,24.8,99,84,77,29.55,29.36,22,10,22,0.02
2013-3-18,22.3,19.8,14.4,10.6,9.5,-12.2,70,64,57,30.04,29.92,13,5,18,0.00
2013-3-19,14.2,8.0,6.3,6.0,-0.5,-1.0,72,67,67,30.25,30.04,8,4,15,0.00
2013-3-20,8.1,8.1,8.1,-0.5,-0.5,-0.5,67,67,67,30.24,30.24,4,4,12,0.00
2013-5-4,51.8,42.7,25.9,51.0,38.6,23.1,99,86,77,29.95,29.33,10,5,17,0.00